Everett, WA

5:12 PM PST on December 05, 2019 (GMT -0800)
Snohomish County

Weather History for KPAE - October, 2019

Change the Weather History Date:

Monday, October 14, 2019

  Actual Average Record
Temperature  
Mean Temperature 51 °F -  
Max Temperature 57 °F 59 °F 71 °F (2005)
Min Temperature 45 °F 42 °F 28 °F (1969)
Degree Days  
Heating Degree Days 14    
Growing Degree Days 1 (Base 50)    
Moisture  
Dew Point 45 °F    
Average Humidity 86    
Maximum Humidity 100    
Minimum Humidity 64    
Precipitation  
Precipitation 0.00 in - - ()
Sea Level Pressure  
Sea Level Pressure 30.09 in    
Wind  
Wind Speed 4 mph (South)    
Max Wind Speed 8 mph    
Max Gust Speed -    
Visibility 7 miles    
Events Fog    
Averages and records for this station are not official NWS values.
T = Trace of Precipitation, MM = Missing Value Source: NWS Daily Summary

Daily Weather History Graph

Daily Weather History Graph

Search for Another Location

Airport or City:

Astronomy

Oct. 14, 2019 Rise Set
Actual Time 7:26 AM PDT 6:22 PM PDT
Civil Twilight 6:55 AM PDT 6:53 PM PDT
Nautical Twilight 6:19 AM PDT 7:29 PM PDT
Astronomical Twilight 5:43 AM PDT 8:05 PM PDT
Moon 7:14 PM PDT (10/14) 8:02 AM PDT (10/14)
Length of Visible Light 11h 58m
Length of Day
10h 56m
Full, 99% of the Moon is Illuminated
Oct 14
Full
Oct 21
Last Quarter
Oct 27
New
Nov 4
First Quarter
Nov 12
Full

Hourly Weather History & Observations

Time (PDT) Temp. Windchill Dew Point Humidity Pressure Visibility Wind Dir Wind Speed Gust Speed Precip Events Conditions
12:53 AM 46.9 °F - 44.1 °F 90% 30.06 in 10.0 mi Calm Calm - N/A   Clear
1:53 AM 46.9 °F - 43.0 °F 86% 30.06 in 10.0 mi Calm Calm - N/A   Partly Cloudy
2:53 AM 46.9 °F - 43.0 °F 86% 30.07 in 10.0 mi SSE 3.5 mph - N/A   Mostly Cloudy
3:27 AM 45.0 °F 41.8 °F 42.1 °F 90% 30.07 in 6.0 mi South 5.8 mph - N/A   Scattered Clouds
3:39 AM 46.0 °F 43.9 °F 44.1 °F 93% 30.07 in 0.5 mi South 4.6 mph - N/A Fog Fog
3:41 AM 46.0 °F 43.9 °F 45.0 °F 96% 30.07 in 0.2 mi South 4.6 mph - N/A Fog Fog
3:51 AM 46.4 °F 43.5 °F 44.6 °F 93% 30.07 in 0.5 mi South 5.8 mph - N/A Fog Fog
3:53 AM 46.0 °F 43.1 °F 45.0 °F 96% 30.08 in 0.5 mi South 5.8 mph - N/A Fog Fog
4:09 AM 46.9 °F - 46.0 °F 97% 30.07 in 2.0 mi South 4.6 mph - N/A   Overcast
4:34 AM 46.9 °F - 46.9 °F 100% 30.08 in 3.0 mi South 5.8 mph - N/A   Overcast
4:53 AM 48.0 °F - 46.9 °F 96% 30.08 in 4.0 mi South 6.9 mph - N/A   Overcast
5:41 AM 46.9 °F - 46.0 °F 97% 30.08 in 6.0 mi South 5.8 mph - N/A   Overcast
5:53 AM 46.9 °F - 46.9 °F 100% 30.09 in 5.0 mi SSW 4.6 mph - N/A   Overcast
6:08 AM 46.9 °F - 46.0 °F 97% 30.09 in 5.0 mi SSE 4.6 mph - N/A   Overcast
6:40 AM 48.0 °F - 46.0 °F 93% 30.10 in 5.0 mi SSE 4.6 mph - N/A   Overcast
6:53 AM 48.0 °F - 46.0 °F 93% 30.11 in 6.0 mi SSE 4.6 mph - N/A   Overcast
7:53 AM 48.0 °F - 45.0 °F 89% 30.11 in 9.0 mi South 5.8 mph - N/A   Overcast
8:53 AM 48.0 °F - 45.0 °F 89% 30.12 in 9.0 mi SSE 5.8 mph - N/A   Overcast
9:36 AM 48.0 °F - 44.1 °F 86% 30.12 in 10.0 mi SSE 5.8 mph - N/A   Overcast
9:53 AM 48.9 °F - 45.0 °F 86% 30.13 in 10.0 mi SSE 8.1 mph - N/A   Overcast
10:53 AM 50.0 °F - 45.0 °F 83% 30.13 in 10.0 mi South 8.1 mph - N/A   Overcast
11:53 AM 53.1 °F - 45.0 °F 74% 30.13 in 10.0 mi Variable 4.6 mph - N/A   Scattered Clouds
12:53 PM 53.1 °F - 46.0 °F 77% 30.12 in 10.0 mi West 6.9 mph - N/A   Scattered Clouds
1:53 PM 55.9 °F - 46.9 °F 72% 30.10 in 10.0 mi WNW 5.8 mph - N/A   Clear
2:53 PM 55.9 °F - 44.1 °F 64% 30.09 in 10.0 mi Variable 3.5 mph - N/A   Clear
3:53 PM 57.0 °F - 45.0 °F 64% 30.09 in 10.0 mi Variable 3.5 mph - N/A   Clear
4:53 PM 55.9 °F - 45.0 °F 67% 30.09 in 10.0 mi North 4.6 mph - N/A   Clear
5:53 PM 54.0 °F - 44.1 °F 69% 30.06 in 10.0 mi North 3.5 mph - N/A   Clear
6:53 PM 51.1 °F - 44.1 °F 77% 30.07 in 10.0 mi Calm Calm - N/A   Clear
7:53 PM 50.0 °F - 44.1 °F 80% 30.08 in 10.0 mi North 4.6 mph - N/A   Clear
8:53 PM 50.0 °F - 46.9 °F 89% 30.09 in 8.0 mi NNE 3.5 mph - N/A   Clear
9:53 PM 48.9 °F - 46.0 °F 90% 30.07 in 8.0 mi NE 3.5 mph - N/A   Clear
10:53 PM 48.0 °F - 45.0 °F 89% 30.04 in 7.0 mi Calm Calm - N/A   Clear
11:53 PM 48.9 °F - 46.0 °F 90% 30.03 in 7.0 mi Calm Calm - N/A   Clear